Weather History for Marfa, TX

Change the Weather History Date:

Thursday, November 28, 2013

  Actual Average Record
Temperature  
Mean Temperature 39 °F -  
Max Temperature 59 °F 58 °F 78 °F (1998)
Min Temperature 19 °F 30 °F 15 °F (2003)
Degree Days  
Heating Degree Days 26    
Moisture  
Dew Point 25 °F    
Average Humidity 67    
Maximum Humidity 100    
Minimum Humidity 31    
Precipitation  
Precipitation 0.00 in - - ()
Sea Level Pressure  
Sea Level Pressure 30.26 in    
Wind  
Wind Speed 5 mph (NNE)    
Max Wind Speed 10 mph    
Max Gust Speed -    
Visibility 10 miles    
Events      
Averages and records for this station are not official NWS values.
T = Trace of Precipitation, MM = Missing Value Source: NWS Daily Summary

Daily Weather History Graph

Daily Weather History Graph

Search for Another Location

Airport:

Trip Planner

Search our weather history database for the weather conditions in past years. The results will help you decide how hot, cold, wet, or windy it might be!

Date:

Astronomy

Nov. 28, 2013 Rise Set
Actual Time 7:32 AM CST 5:55 PM CST
Civil Twilight 7:06 AM CST 6:21 PM CST
Nautical Twilight 6:37 AM CST 6:50 PM CST
Astronomical Twilight 6:08 AM CST 7:19 PM CST
Moon 2:55 AM CST (11/28) 2:50 PM CST (11/28)
Length of Visible Light 11h 14m
Length of Day
10h 22m
Waning Crescent, 22% of the Moon is Illuminated
Nov 28
Waning Crescent
Dec 2
New
Dec 9
First Quarter
Dec 17
Full
Dec 25
Last Quarter

Hourly Weather History & Observations

Time (CST) Temp. Windchill Dew Point Humidity Pressure Visibility Wind Dir Wind Speed Gust Speed Precip Events Conditions
12:15 AM 30.2 °F 26.7 °F 24.8 °F 80% 30.25 in 10.0 mi NW 3.5 mph - N/A   Clear
12:35 AM 30.2 °F 26.7 °F 24.8 °F 80% 30.25 in 10.0 mi NW 3.5 mph - N/A   Clear
12:55 AM 28.4 °F 22.2 °F 24.8 °F 86% 30.24 in 10.0 mi NNW 5.8 mph - N/A   Clear
1:15 AM 28.4 °F 22.2 °F 24.8 °F 86% 30.24 in 10.0 mi NNW 5.8 mph - N/A   Clear
1:35 AM 28.4 °F 20.4 °F 24.8 °F 86% 30.23 in 10.0 mi North 8.1 mph - N/A   Clear
1:55 AM 26.6 °F 22.6 °F 24.8 °F 93% 30.23 in 10.0 mi North 3.5 mph - N/A   Clear
2:15 AM 24.8 °F 17.9 °F 21.2 °F 86% 30.23 in 10.0 mi North 5.8 mph - N/A   Clear
2:35 AM 24.8 °F 19.1 °F 19.4 °F 80% 30.23 in 10.0 mi North 4.6 mph - N/A   Clear
2:55 AM 23.0 °F 17.0 °F 19.4 °F 86% 30.23 in 10.0 mi North 4.6 mph - N/A   Clear
3:15 AM 21.2 °F 13.6 °F 19.4 °F 93% 30.22 in 10.0 mi North 5.8 mph - N/A   Clear
3:35 AM 21.2 °F 13.6 °F 19.4 °F 93% 30.22 in 10.0 mi North 5.8 mph - N/A   Clear
3:55 AM 21.2 °F 14.9 °F 19.4 °F 93% 30.23 in 10.0 mi North 4.6 mph - N/A   Clear
4:15 AM 23.0 °F - 21.2 °F 93% 30.23 in 10.0 mi Calm Calm - N/A   Clear
4:35 AM 21.2 °F 14.9 °F 19.4 °F 93% 30.22 in 10.0 mi North 4.6 mph - N/A   Clear
4:55 AM 21.2 °F 14.9 °F 17.6 °F 86% 30.22 in 10.0 mi North 4.6 mph - N/A   Clear
5:15 AM 19.4 °F 12.8 °F 17.6 °F 93% 30.23 in 10.0 mi North 4.6 mph - N/A   Clear
5:35 AM 21.2 °F 16.4 °F 19.4 °F 93% 30.22 in 10.0 mi North 3.5 mph - N/A   Clear
5:55 AM 21.2 °F 13.6 °F 19.4 °F 93% 30.23 in 10.0 mi NNE 5.8 mph - N/A   Clear
6:15 AM 21.2 °F 13.6 °F 19.4 °F 93% 30.23 in 10.0 mi NNE 5.8 mph - N/A   Clear
6:35 AM 21.2 °F 13.6 °F 19.4 °F 93% 30.24 in 10.0 mi North 5.8 mph - N/A   Clear
6:55 AM 21.2 °F 13.6 °F 17.6 °F 86% 30.25 in 10.0 mi North 5.8 mph - N/A   Clear
7:15 AM 21.2 °F 14.9 °F 19.4 °F 93% 30.26 in 10.0 mi NNE 4.6 mph - N/A   Clear
7:35 AM 21.2 °F 14.9 °F 19.4 °F 93% 30.26 in 10.0 mi NNE 4.6 mph - N/A   Clear
7:55 AM 21.2 °F 16.4 °F 17.6 °F 86% 30.27 in 10.0 mi North 3.5 mph - N/A   Clear
8:15 AM 21.2 °F 14.9 °F 21.2 °F 100% 30.27 in 10.0 mi North 4.6 mph - N/A   Clear
8:35 AM 28.4 °F 24.6 °F 26.6 °F 93% 30.28 in 10.0 mi North 3.5 mph - N/A   Clear
8:55 AM 33.8 °F 30.8 °F 28.4 °F 81% 30.28 in 10.0 mi NNW 3.5 mph - N/A   Clear
9:15 AM 35.6 °F - 28.4 °F 75% 30.28 in 10.0 mi Calm Calm - N/A   Clear
9:35 AM 39.2 °F 35.9 °F 26.6 °F 61% 30.29 in 10.0 mi SSE 4.6 mph - N/A   Clear
9:55 AM 41.0 °F 38.0 °F 26.6 °F 57% 30.30 in 10.0 mi SSE 4.6 mph - N/A   Clear
10:15 AM 42.8 °F 39.3 °F 26.6 °F 53% 30.30 in 10.0 mi SSW 5.8 mph - N/A   Clear
10:35 AM 44.6 °F 40.7 °F 26.6 °F 49% 30.30 in 10.0 mi South 6.9 mph - N/A   Clear
10:55 AM 44.6 °F 40.7 °F 26.6 °F 49% 30.30 in 10.0 mi SSE 6.9 mph - N/A   Clear
11:15 AM 46.4 °F 42.9 °F 26.6 °F 46% 30.30 in 10.0 mi South 6.9 mph - N/A   Clear
11:35 AM 48.2 °F - 26.6 °F 43% 30.29 in 10.0 mi SSE 8.1 mph - N/A   Clear
11:55 AM 50.0 °F - 26.6 °F 40% 30.29 in 10.0 mi South 8.1 mph - N/A   Clear
12:15 PM 51.8 °F - 26.6 °F 38% 30.28 in 10.0 mi South 10.4 mph - N/A   Clear
12:35 PM 51.8 °F - 28.4 °F 41% 30.27 in 10.0 mi SSW 6.9 mph - N/A   Clear
12:55 PM 53.6 °F - 28.4 °F 38% 30.26 in 10.0 mi SW 6.9 mph - N/A   Clear
1:15 PM 53.6 °F - 28.4 °F 38% 30.25 in 10.0 mi SW 6.9 mph - N/A   Clear
1:35 PM 55.4 °F - 28.4 °F 36% 30.24 in 10.0 mi South 4.6 mph - N/A   Clear
1:55 PM 55.4 °F - 28.4 °F 36% 30.23 in 10.0 mi SSE 4.6 mph - N/A   Clear
2:15 PM 57.2 °F - 28.4 °F 33% 30.23 in 10.0 mi SSE 5.8 mph - N/A   Clear
2:35 PM 57.2 °F - 28.4 °F 33% 30.23 in 10.0 mi SSE 5.8 mph - N/A   Clear
2:55 PM 57.2 °F - 28.4 °F 33% 30.22 in 10.0 mi SSE 9.2 mph - N/A   Clear
3:15 PM 57.2 °F - 28.4 °F 33% 30.22 in 10.0 mi SSE 5.8 mph - N/A   Clear
3:35 PM 59.0 °F - 28.4 °F 31% 30.22 in 10.0 mi South 9.2 mph - N/A   Clear
3:55 PM 59.0 °F - 28.4 °F 31% 30.22 in 10.0 mi SE 8.1 mph - N/A   Clear
4:15 PM 59.0 °F - 28.4 °F 31% 30.23 in 10.0 mi SSE 6.9 mph - N/A   Clear
4:35 PM 57.2 °F - 28.4 °F 33% 30.23 in 10.0 mi SSE 6.9 mph - N/A   Clear
4:55 PM 57.2 °F - 28.4 °F 33% 30.24 in 10.0 mi SE 9.2 mph - N/A   Clear
5:15 PM 55.4 °F - 28.4 °F 36% 30.24 in 10.0 mi SSE 6.9 mph - N/A   Clear
5:35 PM 55.4 °F - 28.4 °F 36% 30.24 in 10.0 mi SE 6.9 mph - N/A   Clear
5:55 PM 51.8 °F - 28.4 °F 41% 30.25 in 10.0 mi SSE 5.8 mph - N/A   Clear
6:15 PM 50.0 °F - 28.4 °F 43% 30.25 in 10.0 mi SSE 6.9 mph - N/A   Clear
6:35 PM 48.2 °F - 28.4 °F 46% 30.26 in 10.0 mi SSE 5.8 mph - N/A   Clear
6:55 PM 46.4 °F 44.3 °F 28.4 °F 50% 30.27 in 10.0 mi SSE 4.6 mph - N/A   Clear
7:15 PM 39.2 °F - 26.6 °F 61% 30.28 in 10.0 mi Calm Calm - N/A   Clear
7:35 PM 37.4 °F 33.8 °F 26.6 °F 65% 30.28 in 10.0 mi NE 4.6 mph - N/A   Clear
7:55 PM 35.6 °F 32.8 °F 26.6 °F 70% 30.29 in 10.0 mi NE 3.5 mph - N/A   Clear
8:15 PM 37.4 °F 34.9 °F 26.6 °F 65% 30.30 in 10.0 mi East 3.5 mph - N/A   Clear
8:35 PM 39.2 °F - 28.4 °F 65% 30.30 in 10.0 mi Calm Calm - N/A   Clear
8:55 PM 35.6 °F 32.8 °F 26.6 °F 70% 30.32 in 10.0 mi SW 3.5 mph - N/A   Clear
9:15 PM 32.0 °F 28.7 °F 24.8 °F 75% 30.32 in 10.0 mi West 3.5 mph - N/A   Clear
9:35 PM 28.4 °F - 24.8 °F 86% 30.32 in 10.0 mi Calm Calm - N/A   Clear
9:55 PM 28.4 °F 23.3 °F 24.8 °F 86% 30.33 in 10.0 mi NW 4.6 mph - N/A   Clear
10:15 PM 28.4 °F 23.3 °F 24.8 °F 86% 30.33 in 10.0 mi NNW 4.6 mph - N/A   Clear
10:35 PM 28.4 °F 19.7 °F 24.8 °F 86% 30.33 in 10.0 mi NNW 9.2 mph - N/A   Clear
10:55 PM 30.2 °F 24.3 °F 26.6 °F 86% 30.33 in 10.0 mi NNW 5.8 mph - N/A   Clear
11:15 PM 28.4 °F 22.2 °F 24.8 °F 86% 30.33 in 10.0 mi North 5.8 mph - N/A   Clear
11:35 PM 26.6 °F 20.0 °F 23.0 °F 86% 30.33 in 10.0 mi North 5.8 mph - N/A   Clear
11:55 PM 26.6 °F 18.2 °F 23.0 °F 86% 30.33 in 10.0 mi NNW 8.1 mph - N/A   Clear